Contacto @
curve curve curve curve

ESCUELA DE PILOTOS

Dron

CONTACTO INFORMACIÓN CURSO
PILOTO RPA - DRONES - UAV



Para más información, llamar al 972 23 41 26, enviar un email a info@aerbrava.com o rellenar el siguiente formulario.

Los campos marcados (*) son obligatorios

Nombre:
  

Teléfono:
  

*Email:
  

*Repita Email:
  

Texto:
  

He leído y acepto el tratamiento de datos personales y la política de privacidad

Matrícula abierta Piloto RPAs - Drones - UAVs.
Lunes
20 Noviembre de 2017
Página cargada a las 15:26 UTC
Orto: 06:48 UTC
Ocaso: 16:20 UTC

2017/11/20 15:00 LEGE 201500Z VRB02KT CAVOK 18/06 Q1021


2017/11/20 12:27 TAF LEGE 201100Z 2012/2112 VRB02KT 9999 FEW020 TX20/2014Z TN04/2106Z TEMPO 2012/2017 18007KT
Sólo se muestran los aviones equipados con el sistema ADS-B en directo desde FlightRadar24
Aerbrava en el facebook Aerbrava en el youtube Aerbrava en el twitter Google+
Instagram tumblr flikr
logo inicio Nosotros | Mapa del sitio | Oportunidades profesionales | Privacidad | Contacte con nosotros | © 2017 AERBRAVA, SCP